Time,TemperatureF,DewpointF,PressureIn,WindDirection,WindDirectionDegrees,WindSpeedMPH,WindSpeedGustMPH,Humidity,HourlyPrecipIn,Conditions,Clouds,dailyrainin,SoftwareType,DateUTC
2013-06-01 00:01:00,51.0,16.0,29.83,SW,220,15.0,26.0,24,0.00,,,0.00,,2013-06-01 06:01:00,
2013-06-01 00:12:00,51.0,15.0,29.83,South,182,5.0,21.0,23,0.00,,,0.00,,2013-06-01 06:12:00,
2013-06-01 00:22:00,51.0,15.0,29.83,South,182,5.0,21.0,23,0.00,,,0.00,,2013-06-01 06:22:00,
2013-06-01 00:32:00,50.0,14.0,29.83,SW,225,10.0,20.0,23,0.00,,,0.00,,2013-06-01 06:32:00,
2013-06-01 00:42:00,50.0,14.0,29.82,WNW,290,3.0,13.0,23,0.00,,,0.00,,2013-06-01 06:42:00,
2013-06-01 00:52:00,50.0,14.0,29.82,WNW,290,3.0,13.0,23,0.00,,,0.00,,2013-06-01 06:52:00,
2013-06-01 01:01:00,48.0,18.0,29.85,WNW,295,5.0,14.0,30,0.00,,,0.00,,2013-06-01 07:01:00,
2013-06-01 01:11:00,48.0,18.0,29.85,WNW,295,5.0,14.0,30,0.00,,,0.00,,2013-06-01 07:11:00,
2013-06-01 01:21:00,48.0,19.0,29.86,West,279,7.0,16.0,31,0.00,,,0.00,,2013-06-01 07:21:00,
2013-06-01 01:31:00,47.0,22.0,29.87,West,262,6.0,24.0,37,0.00,,,0.00,,2013-06-01 07:31:00,
2013-06-01 01:42:00,47.0,23.0,29.88,West,267,9.0,17.0,39,0.00,,,0.00,,2013-06-01 07:42:00,
2013-06-01 01:52:00,47.0,23.0,29.88,West,267,9.0,17.0,39,0.00,,,0.00,,2013-06-01 07:52:00,
2013-06-01 02:02:00,46.0,22.0,29.88,WNW,285,8.0,14.0,39,0.00,,,0.00,,2013-06-01 08:02:00,
2013-06-01 02:11:00,46.0,22.0,29.88,WSW,240,9.0,16.0,39,0.00,,,0.00,,2013-06-01 08:11:00,
2013-06-01 02:21:00,46.0,22.0,29.88,WSW,240,9.0,16.0,39,0.00,,,0.00,,2013-06-01 08:21:00,
2013-06-01 02:32:00,46.0,22.0,29.88,WSW,249,4.0,12.0,39,0.00,,,0.00,,2013-06-01 08:32:00,
2013-06-01 02:42:00,46.0,22.0,29.88,West,264,6.0,26.0,39,0.00,,,0.00,,2013-06-01 08:42:00,
2013-06-01 02:52:00,46.0,22.0,29.88,West,264,6.0,26.0,39,0.00,,,0.00,,2013-06-01 08:52:00,
2013-06-01 03:01:00,46.0,22.0,29.88,West,273,6.0,12.0,39,0.00,,,0.00,,2013-06-01 09:01:00,
2013-06-01 03:12:00,46.0,22.0,29.88,West,273,6.0,12.0,39,0.00,,,0.00,,2013-06-01 09:12:00,
2013-06-01 03:21:00,46.0,22.0,29.88,WSW,244,14.0,24.0,39,0.00,,,0.00,,2013-06-01 09:21:00,
2013-06-01 03:33:00,45.0,22.0,29.88,West,272,6.0,16.0,39,0.00,,,0.00,,2013-06-01 09:33:00,
2013-06-01 03:42:00,45.0,22.0,29.88,West,272,6.0,16.0,39,0.00,,,0.00,,2013-06-01 09:42:00,
2013-06-01 03:53:00,45.0,23.0,29.90,West,266,6.0,12.0,41,0.00,,,0.00,,2013-06-01 09:53:00,
2013-06-01 04:02:00,45.0,23.0,29.90,WSW,258,6.0,17.0,42,0.00,,,0.00,,2013-06-01 10:02:00,
2013-06-01 04:13:00,45.0,23.0,29.90,WSW,258,6.0,17.0,42,0.00,,,0.00,,2013-06-01 10:13:00,
2013-06-01 04:22:00,45.0,23.0,29.91,West,265,10.0,17.0,42,0.00,,,0.00,,2013-06-01 10:22:00,
2013-06-01 04:32:00,45.0,24.0,29.90,SW,234,10.0,17.0,44,0.00,,,0.00,,2013-06-01 10:32:00,
2013-06-01 04:42:00,45.0,25.0,29.90,WNW,283,9.0,17.0,45,0.00,,,0.00,,2013-06-01 10:42:00,
2013-06-01 04:52:00,45.0,25.0,29.90,WNW,283,9.0,17.0,45,0.00,,,0.00,,2013-06-01 10:52:00,
2013-06-01 05:02:00,44.0,25.0,29.92,West,273,8.0,20.0,47,0.00,,,0.00,,2013-06-01 11:02:00,
2013-06-01 05:11:00,44.0,25.0,29.92,West,273,8.0,20.0,47,0.00,,,0.00,,2013-06-01 11:11:00,
2013-06-01 05:21:00,44.0,26.0,29.91,WNW,282,6.0,14.0,48,0.00,,,0.00,,2013-06-01 11:21:00,
2013-06-01 05:32:00,44.0,26.0,29.93,WNW,283,4.0,8.0,49,0.00,,,0.00,,2013-06-01 11:32:00,
2013-06-01 05:42:00,44.0,26.0,29.95,WSW,252,6.0,10.0,49,0.00,,,0.00,,2013-06-01 11:42:00,
2013-06-01 05:52:00,44.0,26.0,29.95,WSW,252,6.0,10.0,49,0.00,,,0.00,,2013-06-01 11:52:00,
2013-06-01 06:01:00,45.0,27.0,29.95,West,272,7.0,12.0,48,0.00,,,0.00,,2013-06-01 12:01:00,
2013-06-01 06:12:00,45.0,27.0,29.95,West,272,7.0,12.0,48,0.00,,,0.00,,2013-06-01 12:12:00,
2013-06-01 06:21:00,45.0,27.0,29.95,WNW,288,5.0,12.0,49,0.00,,,0.00,,2013-06-01 12:21:00,
2013-06-01 06:32:00,45.0,27.0,29.97,WNW,286,3.0,8.0,50,0.00,,,0.00,,2013-06-01 12:32:00,
2013-06-01 06:41:00,45.0,27.0,29.98,West,276,3.0,8.0,50,0.00,,,0.00,,2013-06-01 12:41:00,
2013-06-01 06:52:00,45.0,27.0,29.98,West,276,3.0,8.0,50,0.00,,,0.00,,2013-06-01 12:52:00,
2013-06-01 07:01:00,45.0,27.0,29.98,WNW,299,2.0,6.0,50,0.00,,,0.00,,2013-06-01 13:01:00,
2013-06-01 07:11:00,45.0,27.0,29.98,WNW,299,2.0,6.0,50,0.00,,,0.00,,2013-06-01 13:11:00,
2013-06-01 07:22:00,45.0,27.0,29.98,WSW,252,5.0,12.0,50,0.00,,,0.00,,2013-06-01 13:22:00,
2013-06-01 07:32:00,45.0,28.0,30.00,WNW,296,5.0,10.0,52,0.00,,,0.00,,2013-06-01 13:32:00,
2013-06-01 07:42:00,45.0,28.0,30.01,West,273,5.0,10.0,52,0.00,,,0.00,,2013-06-01 13:42:00,
2013-06-01 07:52:00,45.0,28.0,30.01,West,273,5.0,10.0,52,0.00,,,0.00,,2013-06-01 13:52:00,
2013-06-01 08:02:00,45.0,29.0,30.01,WNW,299,8.0,13.0,54,0.00,,,0.00,,2013-06-01 14:02:00,
2013-06-01 08:11:00,45.0,29.0,30.01,WNW,299,8.0,13.0,54,0.00,,,0.00,,2013-06-01 14:11:00,
2013-06-01 08:21:00,45.0,29.0,30.00,WNW,284,7.0,13.0,54,0.00,,,0.00,,2013-06-01 14:21:00,
2013-06-01 08:32:00,46.0,30.0,30.01,West,265,6.0,10.0,53,0.00,,,0.00,,2013-06-01 14:32:00,
2013-06-01 08:42:00,46.0,30.0,30.01,West,265,6.0,10.0,53,0.00,,,0.00,,2013-06-01 14:42:00,
2013-06-01 08:52:00,47.0,30.0,30.01,WNW,292,6.0,12.0,51,0.00,,,0.00,,2013-06-01 14:52:00,
2013-06-01 09:02:00,49.0,30.0,29.99,West,259,5.0,12.0,47,0.00,,,0.00,,2013-06-01 15:02:00,
2013-06-01 09:11:00,49.0,30.0,29.99,West,259,5.0,12.0,47,0.00,,,0.00,,2013-06-01 15:11:00,
2013-06-01 09:21:00,49.0,29.0,29.99,West,269,9.0,14.0,46,0.00,,,0.00,,2013-06-01 15:21:00,
2013-06-01 09:33:00,49.0,28.0,29.99,West,274,7.0,16.0,44,0.00,,,0.00,,2013-06-01 15:33:00,
2013-06-01 09:43:00,49.0,28.0,29.99,West,274,7.0,16.0,44,0.00,,,0.00,,2013-06-01 15:43:00,
2013-06-01 09:53:00,50.0,29.0,30.00,WNW,282,9.0,14.0,44,0.00,,,0.00,,2013-06-01 15:53:00,
2013-06-01 10:03:00,51.0,28.0,29.99,West,280,7.0,16.0,41,0.00,,,0.00,,2013-06-01 16:03:00,
2013-06-01 10:12:00,51.0,28.0,29.99,West,280,7.0,16.0,41,0.00,,,0.00,,2013-06-01 16:12:00,
2013-06-01 10:23:00,54.0,30.0,29.95,SW,228,6.0,12.0,39,0.00,,,0.00,,2013-06-01 16:23:00,
2013-06-01 10:33:00,53.0,28.0,29.96,South,190,5.0,10.0,38,0.00,,,0.00,,2013-06-01 16:33:00,
2013-06-01 10:42:00,53.0,29.0,29.96,WSW,256,7.0,18.0,40,0.00,,,0.00,,2013-06-01 16:42:00,
2013-06-01 10:52:00,53.0,29.0,29.96,WSW,256,7.0,18.0,40,0.00,,,0.00,,2013-06-01 16:52:00,
2013-06-01 11:02:00,53.0,29.0,29.95,WNW,283,5.0,14.0,39,0.00,,,0.00,,2013-06-01 17:02:00,
2013-06-01 11:11:00,53.0,29.0,29.95,WNW,283,5.0,14.0,39,0.00,,,0.00,,2013-06-01 17:11:00,
2013-06-01 11:22:00,52.0,28.0,29.95,SW,216,10.0,18.0,39,0.00,,,0.00,,2013-06-01 17:22:00,
2013-06-01 11:32:00,52.0,28.0,29.96,SW,217,11.0,17.0,39,0.00,,,0.00,,2013-06-01 17:32:00,
2013-06-01 11:42:00,52.0,28.0,29.96,SW,217,11.0,17.0,39,0.00,,,0.00,,2013-06-01 17:42:00,
2013-06-01 11:52:00,52.0,28.0,29.98,SSW,206,10.0,14.0,40,0.00,,,0.00,,2013-06-01 17:52:00,
2013-06-01 12:01:00,55.0,28.0,29.96,South,175,8.0,14.0,35,0.00,,,0.00,,2013-06-01 18:01:00,
2013-06-01 12:12:00,55.0,28.0,29.96,South,175,8.0,14.0,35,0.00,,,0.00,,2013-06-01 18:12:00,
2013-06-01 12:21:00,56.0,28.0,29.94,SW,214,12.0,16.0,34,0.00,,,0.00,,2013-06-01 18:21:00,
2013-06-01 12:32:00,55.0,27.0,29.95,SSW,193,8.0,12.0,34,0.00,,,0.00,,2013-06-01 18:32:00,
2013-06-01 12:42:00,55.0,27.0,29.95,SSW,193,8.0,12.0,34,0.00,,,0.00,,2013-06-01 18:42:00,
2013-06-01 12:51:00,55.0,27.0,29.97,WSW,255,12.0,12.0,34,0.00,,,0.00,,2013-06-01 18:51:00,
2013-06-01 13:02:00,55.0,27.0,29.96,SW,216,10.0,12.0,34,0.00,,,0.00,,2013-06-01 19:02:00,
2013-06-01 13:11:00,56.0,27.0,29.97,SW,224,9.0,14.0,32,0.00,,,0.00,,2013-06-01 19:11:00,
2013-06-01 13:21:00,56.0,27.0,29.97,SW,224,9.0,14.0,32,0.00,,,0.00,,2013-06-01 19:21:00,
2013-06-01 13:32:00,59.0,30.0,29.95,SE,137,2.0,12.0,33,0.00,,,0.00,,2013-06-01 19:32:00,
2013-06-01 13:41:00,59.0,30.0,29.95,SE,137,2.0,12.0,33,0.00,,,0.00,,2013-06-01 19:41:00,
2013-06-01 13:52:00,58.0,26.0,29.94,East,88,2.0,8.0,29,0.00,,,0.00,,2013-06-01 19:52:00,
2013-06-01 14:01:00,57.0,32.0,29.95,SE,128,1.0,12.0,38,0.00,,,0.00,,2013-06-01 20:01:00,
2013-06-01 14:12:00,57.0,32.0,29.95,SE,128,1.0,12.0,38,0.00,,,0.00,,2013-06-01 20:12:00,
2013-06-01 14:21:00,57.0,32.0,29.96,ESE,121,6.0,12.0,38,0.00,,,0.00,,2013-06-01 20:21:00,
2013-06-01 14:32:00,57.0,32.0,29.95,ESE,104,5.0,8.0,39,0.00,,,0.00,,2013-06-01 20:32:00,
2013-06-01 14:41:00,57.0,33.0,29.96,SE,128,4.0,10.0,40,0.00,,,0.00,,2013-06-01 20:41:00,
2013-06-01 14:52:00,57.0,33.0,29.96,SE,128,4.0,10.0,40,0.00,,,0.00,,2013-06-01 20:52:00,
2013-06-01 15:01:00,57.0,31.0,29.96,SE,129,3.0,7.0,37,0.00,,,0.00,,2013-06-01 21:01:00,
2013-06-01 15:11:00,57.0,34.0,29.96,ESE,121,3.0,8.0,41,0.00,,,0.00,,2013-06-01 21:11:00,
2013-06-01 15:21:00,57.0,34.0,29.96,ESE,121,3.0,8.0,41,0.00,,,0.00,,2013-06-01 21:21:00,
2013-06-01 15:33:00,56.0,33.0,29.96,ESE,117,5.0,7.0,41,0.00,,,0.00,,2013-06-01 21:33:00,
2013-06-01 15:42:00,56.0,33.0,29.96,ESE,117,5.0,7.0,41,0.00,,,0.00,,2013-06-01 21:42:00,
2013-06-01 15:53:00,56.0,33.0,29.97,SE,131,2.0,8.0,41,0.00,,,0.00,,2013-06-01 21:53:00,
2013-06-01 16:03:00,56.0,33.0,29.96,ESE,122,3.0,7.0,42,0.00,,,0.00,,2013-06-01 22:03:00,
2013-06-01 16:12:00,55.0,33.0,29.98,SE,128,0.0,7.0,43,0.00,,,0.00,,2013-06-01 22:12:00,
2013-06-01 16:23:00,55.0,33.0,29.98,SE,128,0.0,7.0,43,0.00,,,0.00,,2013-06-01 22:23:00,
2013-06-01 16:33:00,55.0,33.0,29.99,SE,130,3.0,10.0,44,0.00,,,0.00,,2013-06-01 22:33:00,
2013-06-01 16:42:00,55.0,33.0,30.00,SE,128,1.0,6.0,44,0.00,,,0.00,,2013-06-01 22:42:00,
2013-06-01 16:53:00,55.0,33.0,30.00,SE,128,1.0,6.0,44,0.00,,,0.00,,2013-06-01 22:53:00,
2013-06-01 17:02:00,55.0,33.0,30.00,SE,128,1.0,5.0,44,0.00,,,0.00,,2013-06-01 23:02:00,
2013-06-01 17:11:00,56.0,34.0,30.00,SE,128,2.0,6.0,44,0.00,,,0.00,,2013-06-01 23:11:00,
2013-06-01 17:21:00,56.0,34.0,30.00,SE,128,2.0,6.0,44,0.00,,,0.00,,2013-06-01 23:21:00,
2013-06-01 17:32:00,56.0,36.0,30.00,ESE,105,2.0,5.0,46,0.00,,,0.00,,2013-06-01 23:32:00,
2013-06-01 17:42:00,56.0,36.0,30.00,ESE,105,2.0,5.0,46,0.00,,,0.00,,2013-06-01 23:42:00,
2013-06-01 17:52:00,55.0,34.0,29.98,ESE,120,2.0,5.0,45,0.00,,,0.00,,2013-06-01 23:52:00,
2013-06-01 18:02:00,56.0,35.0,29.98,ESE,122,2.0,3.0,45,0.00,,,0.00,,2013-06-02 00:02:00,
2013-06-01 18:11:00,56.0,35.0,29.98,ESE,122,2.0,3.0,45,0.00,,,0.00,,2013-06-02 00:11:00,
2013-06-01 18:21:00,56.0,35.0,29.98,ESE,111,1.0,5.0,45,0.00,,,0.00,,2013-06-02 00:21:00,
2013-06-01 18:32:00,56.0,34.0,29.97,North,355,3.0,7.0,44,0.00,,,0.00,,2013-06-02 00:32:00,
2013-06-01 18:41:00,56.0,34.0,29.97,North,355,3.0,7.0,44,0.00,,,0.00,,2013-06-02 00:41:00,
2013-06-01 18:51:00,57.0,34.0,29.97,NE,49,3.0,6.0,42,0.00,,,0.00,,2013-06-02 00:51:00,
2013-06-01 19:01:00,56.0,34.0,29.95,NNW,345,5.0,7.0,44,0.00,,,0.00,,2013-06-02 01:01:00,
2013-06-01 19:11:00,56.0,34.0,29.95,NNW,345,5.0,7.0,44,0.00,,,0.00,,2013-06-02 01:11:00,
2013-06-01 19:21:00,56.0,34.0,29.95,North,5,6.0,7.0,44,0.00,,,0.00,,2013-06-02 01:21:00,
2013-06-01 19:32:00,55.0,35.0,29.97,North,351,5.0,7.0,46,0.00,,,0.00,,2013-06-02 01:32:00,
2013-06-01 19:41:00,55.0,35.0,29.97,North,354,3.0,7.0,46,0.00,,,0.00,,2013-06-02 01:41:00,
2013-06-01 19:52:00,55.0,35.0,29.97,North,354,3.0,7.0,46,0.00,,,0.00,,2013-06-02 01:52:00,
2013-06-01 20:01:00,54.0,35.0,29.98,NNE,12,1.0,6.0,49,0.00,,,0.00,,2013-06-02 02:01:00,
2013-06-01 20:12:00,54.0,35.0,29.98,NNE,12,1.0,6.0,49,0.00,,,0.00,,2013-06-02 02:12:00,
2013-06-01 20:21:00,53.0,35.0,29.98,SE,128,2.0,8.0,50,0.00,,,0.00,,2013-06-02 02:21:00,
2013-06-01 20:32:00,52.0,34.0,30.00,SE,128,3.0,6.0,50,0.00,,,0.00,,2013-06-02 02:32:00,
2013-06-01 20:41:00,52.0,34.0,30.00,SE,128,3.0,6.0,50,0.00,,,0.00,,2013-06-02 02:41:00,
2013-06-01 20:51:00,51.0,34.0,30.00,SE,128,0.0,2.0,51,0.00,,,0.00,,2013-06-02 02:51:00,
2013-06-01 21:02:00,50.0,34.0,30.01,SE,128,1.0,2.0,53,0.00,,,0.00,,2013-06-02 03:02:00,
2013-06-01 21:11:00,50.0,34.0,30.01,SE,128,1.0,2.0,53,0.00,,,0.00,,2013-06-02 03:11:00,
2013-06-01 21:21:00,49.0,34.0,30.02,SE,128,0.0,1.0,55,0.00,,,0.00,,2013-06-02 03:21:00,
2013-06-01 21:33:00,46.0,33.0,30.03,NNE,29,3.0,6.0,61,0.00,,,0.00,,2013-06-02 03:33:00,
2013-06-01 21:43:00,46.0,33.0,30.03,NNE,29,3.0,6.0,61,0.00,,,0.00,,2013-06-02 03:43:00,
2013-06-01 21:52:00,45.0,34.0,30.04,NNE,16,2.0,6.0,64,0.00,,,0.00,,2013-06-02 03:52:00,
2013-06-01 22:02:00,44.0,32.0,30.07,NE,36,2.0,5.0,62,0.00,,,0.00,,2013-06-02 04:02:00,
2013-06-01 22:13:00,44.0,32.0,30.07,NE,36,2.0,5.0,62,0.00,,,0.00,,2013-06-02 04:13:00,
2013-06-01 22:23:00,45.0,32.0,30.08,NNE,32,0.0,3.0,61,0.00,,,0.00,,2013-06-02 04:23:00,
2013-06-01 22:33:00,46.0,32.0,30.07,NNE,32,0.0,0.0,57,0.00,,,0.00,,2013-06-02 04:33:00,
2013-06-01 22:42:00,46.0,32.0,30.07,NNE,32,0.0,0.0,57,0.00,,,0.00,,2013-06-02 04:42:00,
2013-06-01 22:52:00,46.0,29.0,30.07,ESE,117,1.0,3.0,52,0.00,,,0.00,,2013-06-02 04:52:00,
2013-06-01 23:02:00,47.0,29.0,30.06,SE,136,1.0,3.0,49,0.00,,,0.00,,2013-06-02 05:02:00,
2013-06-01 23:12:00,47.0,29.0,30.06,SE,136,1.0,3.0,49,0.00,,,0.00,,2013-06-02 05:12:00,
2013-06-01 23:22:00,48.0,29.0,30.05,SE,139,1.0,5.0,47,0.00,,,0.00,,2013-06-02 05:22:00,
2013-06-01 23:32:00,47.0,28.0,30.04,SE,139,0.0,0.0,48,0.00,,,0.00,,2013-06-02 05:32:00,
2013-06-01 23:42:00,47.0,28.0,30.04,SE,139,0.0,0.0,48,0.00,,,0.00,,2013-06-02 05:42:00,
2013-06-01 23:52:00,47.0,28.0,30.03,SE,131,0.0,3.0,48,0.00,,,0.00,,2013-06-02 05:52:00,